RH
13 12 11 10 10 10 10 11 11 11 12 14 17 20 22 23 22 21 20 17 15 15 16 18 18 20 21 23 24 25 25 24 22 20 18 15 13 16 24 41 64 78 82 89 94 94 96 101 104 103 102 102 104 102 99 98 99 101 101 101 102 100 98
14 14 13 12 12 11 10 10 10 10 11 11 11 12 14 16 18 20 21 22 21 18 16 16 17 18 19 19 20 22 23 25 26 25 24 22 19 17 14 14 20 32 46 65 86 99 101 101 102 104 102 101 100 99 99 98 97 101 103 102 103 99 92
15 15 15 14 13 13 12 11 11 10 10 10 10 11 11 11 12 14 15 19 23 23 21 19 17 17 18 18 19 19 20 20 22 25 27 27 26 22 20 18 15 13 15 24 46 75 96 103 102 101 102 102 100 98 101 102 99 100 101 100 99 99 98
16 15 16 16 14 14 13 12 12 12 11 11 10 10 11 11 11 11 11 13 17 22 25 25 22 19 18 19 18 18 19 19 19 20 22 25 28 28 26 23 20 18 15 12 15 30 58 86 102 103 101 101 102 102 100 100 100 102 102 101 100 100 100
17 18 18 18 16 16 16 16 15 14 13 13 13 12 11 11 11 11 11 11 12 15 21 26 28 26 23 21 21 20 19 18 19 19 20 21 24 27 30 29 27 23 20 17 14 12 20 43 74 97 104 103 101 101 102 101 101 101 102 102 101 100 100
20 21 22 22 21 21 20 20 20 19 19 18 17 15 14 13 12 11 10 11 11 11 13 19 26 32 32 28 25 23 22 20 19 18 18 19 21 24 27 30 32 30 26 22 20 18 14 16 29 55 84 101 104 102 100 99 100 101 102 103 101 100 99
28 28 28 28 27 27 27 26 25 24 24 23 21 19 18 18 17 15 14 12 12 11 11 12 17 25 33 36 33 29 26 24 23 22 20 18 18 20 24 28 32 34 34 30 25 23 21 18 15 19 37 64 89 101 104 103 101 100 99 101 101 102 101
46 45 44 43 41 40 38 37 37 36 35 32 29 25 21 20 20 19 18 17 15 14 13 12 12 14 21 31 37 38 36 33 30 28 26 23 20 18 19 22 27 33 37 38 35 30 26 23 21 18 15 22 40 61 80 94 100 102 103 102 101 100 100
64 61 59 57 56 55 54 52 51 51 51 49 46 40 34 29 26 23 21 20 19 17 16 15 14 13 13 18 25 33 39 41 40 36 32 30 27 25 21 19 19 24 31 38 42 41 38 32 27 25 22 18 17 20 30 43 56 70 82 92 99 103 103
70 67 64 62 60 59 59 58 58 58 59 59 57 55 51 46 41 35 29 26 24 22 20 18 17 15 14 14 15 19 26 34 40 42 40 36 33 31 29 26 22 20 21 27 35 42 46 46 40 34 29 25 23 20 18 18 20 24 32 42 55 69 81
63 62 60 58 57 57 57 56 56 57 58 59 58 58 57 55 52 47 42 38 35 32 29 26 23 19 17 16 15 14 15 19 25 33 38 39 39 37 35 34 32 28 23 20 22 28 37 46 51 50 44 36 30 27 24 23 21 19 18 18 20 23 30
57 56 56 55 54 53 53 53 52 52 52 53 54 53 52 51 50 50 49 47 45 43 40 37 33 30 25 21 18 16 15 14 15 18 23 29 33 36 37 37 36 36 34 29 23 19 21 29 40 49 54 52 46 38 33 29 27 26 24 23 22 20 18
59 59 59 59 59 58 58 56 55 54 52 51 50 49 47 45 44 44 45 45 45 44 43 41 40 39 36 30 25 21 18 16 15 14 14 17 21 25 29 33 36 36 36 35 32 26 20 18 22 31 42 52 56 55 50 43 37 33 30 28 27 26 24
61 60 59 60 61 61 62 62 61 60 58 56 54 52 48 44 42 42 41 41 40 39 39 40 39 38 37 34 31 28 24 21 18 17 15 14 15 16 18 21 25 29 32 33 33 32 28 22 18 18 23 34 50 62 66 63 56 48 42 37 34 31 29
60 61 63 65 65 65 65 65 66 67 67 66 66 62 56 51 49 48 48 46 45 44 44 42 40 38 36 33 31 29 28 26 23 21 19 18 17 16 17 17 17 19 22 25 27 28 28 26 23 19 17 23 39 57 69 74 73 68 60 52 45 40 36
64 66 66 68 69 69 69 71 74 76 77 78 79 76 69 66 65 63 62 62 62 61 57 52 48 45 41 36 32 29 28 27 27 26 24 22 21 20 19 19 18 17 16 17 20 22 23 24 24 22 21 22 31 45 58 68 76 80 78 71 63 56 49
71 73 73 75 77 79 82 87 90 89 89 91 90 85 79 77 77 75 74 73 73 70 65 61 57 54 50 45 38 33 31 30 29 29 29 27 25 24 23 22 21 20 19 17 16 17 19 21 22 23 25 26 30 37 47 61 76 87 91 89 83 74 65
78 80 81 83 87 89 91 93 91 88 87 87 83 78 75 75 74 73 72 70 69 68 65 63 61 58 54 51 44 38 36 36 37 37 34 31 28 26 25 26 26 26 25 22 20 19 19 21 23 27 30 34 37 40 44 54 69 84 95 101 100 93 84
85 88 89 89 90 91 90 89 88 88 90 88 82 78 79 79 78 76 75 72 68 64 61 59 58 56 54 51 47 42 40 44 48 46 39 33 31 30 28 28 30 32 31 30 27 24 23 25 28 33 39 44 48 51 52 56 64 77 92 102 103 101 100
87 92 94 93 93 92 92 94 98 101 102 101 97 96 97 97 94 90 86 82 76 71 69 68 67 65 62 57 50 45 50 59 57 49 43 38 34 34 33 32 33 36 38 38 35 31 29 30 34 40 48 55 60 62 64 66 68 76 88 98 102 102 102
87 90 91 91 91 92 95 100 105 106 106 106 105 104 101 97 94 93 93 94 94 94 94 94 95 91 84 75 64 58 68 78 68 51 44 44 41 39 37 37 37 39 41 43 42 39 37 36 39 45 53 62 68 70 71 73 76 80 86 94 99 101 102
90 92 94 93 94 97 100 102 103 102 102 105 105 101 95 92 93 97 101 103 104 104 103 102 103 103 99 93 88 84 86 91 83 64 51 48 47 46 43 41 40 42 44 45 45 43 41 40 42 46 53 61 68 72 74 75 78 83 89 95 99 100 103
90 91 91 92 95 98 100 100 100 99 100 102 100 94 92 96 101 103 103 102 102 101 101 101 100 101 101 101 102 101 98 98 98 87 72 62 60 60 57 51 46 44 45 47 47 46 45 43 43 44 48 54 60 67 73 75 76 79 85 93 99 102 104
86 86 87 90 94 99 100 100 99 98 98 100 98 95 97 103 105 103 101 101 101 100 100 100 100 100 101 100 100 101 100 100 102 100 94 87 84 83 82 77 69 62 58 57 57 56 54 52 51 50 50 51 54 58 65 70 73 75 78 84 92 99 103
82 83 86 91 96 100 100 100 100 98 96 97 98 99 102 102 101 101 101 100 100 101 100 100 100 100 100 100 100 100 100 100 100 100 101 100 99 98 99 98 95 91 86 82 80 79 76 73 73 72 71 70 69 68 69 70 72 75 76 79 82 87 94
83 86 91 95 99 101 100 99 101 99 96 95 95 98 104 104 101 100 101 100 100 100 100 100 100 100 100 100 100 100 100 100 100 100 100 100 100 100 100 100 100 100 99 98 97 96 95 95 95 95 94 93 92 91 89 88 87 88 88 88 89 89 91
87 90 94 95 95 98 101 100 100 98 95 92 91 94 101 105 103 100 99 100 100 100 100 100 100 100 100 100 100 100 100 100 100 100 100 100 100 100 100 100 100 100 100 100 100 100 100 100 101 101 100 100 100 101 101 100 100 100 99 99 99 99 98
90 93 96 96 95 97 102 103 101 99 94 90 90 93 98 102 102 100 100 100 100 99 100 100 100 100 100 99 100 100 100 100 100 100 100 100 100 100 100 100 100 100 100 100 100 100 100 100 100 100 100 100 100 100 101 101 102 103 104 103 103 104 104
83 85 87 89 89 90 92 95 98 101 100 96 93 96 99 100 100 99 100 100 100 100 100 100 100 100 100 100 100 100 100 100 100 100 100 100 100 100 100 100 100 100 100 100 100 100 100 100 100 100 100 100 100 100 100 101 101 102 103 103 103 102 101
65 64 64 66 68 68 69 71 75 82 90 94 95 97 100 102 102 101 101 100 99 100 100 100 100 100 100 99 100 100 100 100 100 100 100 100 99 99 99 99 100 100 100 100 100 100 100 100 100 100 100 100 100 100 100 99 99 99 98 97 96 95 93
55 54 52 51 52 54 55 55 55 57 62 68 73 77 83 88 94 99 101 102 103 102 100 100 101 101 101 101 100 100 100 100 100 100 100 100 101 101 101 101 101 101 101 100 100 100 100 100 99 99 98 98 98 98 99 99 99 98 96 95 93 92 90
55 54 54 53 52 53 54 54 53 52 52 53 54 55 58 63 68 75 82 88 94 97 98 100 100 100 100 100 100 100 100 101 101 100 100 100 99 98 98 100 99 98 99 100 99 96 95 94 94 93 92 91 90 88 87 85 83 80 77 75 72 69 67
57 56 57 58 57 57 56 56 56 55 54 53 52 51 51 51 52 54 57 61 67 72 77 82 85 87 90 93 95 97 98 98 97 96 95 96 94 93 94 95 93 91 92 91 88 84 81 78 76 73 70 67 64 61 58 55 52 49 46 43 41 39 37
62 61 60 61 61 61 60 60 60 59 57 56 54 52 51 49 48 49 49 50 52 55 57 60 62 66 71 76 80 84 86 88 88 88 88 88 87 85 84 81 77 73 71 69 66 62 59 56 52 49 45 42 39 37 35 33 30 29 28 27 26 25 24
69 67 66 64 63 62 61 61 61 61 61 59 57 54 52 49 48 47 48 48 49 50 52 54 55 57 60 63 66 69 72 73 74 74 73 71 70 68 65 63 61 58 55 51 48 44 40 36 33 31 28 27 26 26 25 25 25 25 25 26 26 26 26
78 76 74 72 69 66 64 62 62 62 63 63 61 57 54 51 50 49 49 50 51 52 53 55 57 59 62 65 67 69 70 70 69 68 66 63 60 57 54 50 46 42 38 34 31 28 26 24 24 24 24 24 26 27 28 29 30 31 32 32 32 32 32
Wind_Speed
77 79 81 83 85 88 90 91 92 92 92 90 89 88 87 86 87 87 89 90 92 93 95 96 96 96 96 96 96 96 95 94 93 92 91 90 89 89 89 90 91 92 90 89 89 89 89 90 89 89 88 87 86 86 88 89 88 86 86 86 86 86 86
72 73 74 76 77 79 82 85 87 89 91 91 91 91 90 89 88 87 86 86 87 88 90 91 93 94 94 95 95 96 96 96 95 95 93 92 91 90 89 88 89 90 89 89 89 89 90 91 91 91 91 88 83 80 81 86 89 89 90 91 92 92 92
70 70 70 71 73 74 75 77 80 82 84 87 89 90 91 91 91 90 88 87 86 86 86 87 88 90 91 92 94 94 95 96 96 96 95 95 94 93 91 90 89 89 88 88 89 90 91 91 91 92 91 89 85 81 79 81 83 85 87 89 89 88 88
68 67 68 69 70 70 71 73 74 76 78 80 82 84 86 88 90 90 90 89 88 88 87 86 85 85 87 88 90 92 93 94 95 95 96 96 96 95 94 93 92 90 89 87 88 90 91 91 92 92 92 91 90 90 89 88 87 86 86 88 88 89 89
67 66 66 67 67 67 68 69 71 72 73 75 77 78 80 82 85 87 88 89 89 90 89 88 86 85 84 85 86 88 90 91 92 93 95 95 96 97 96 95 94 93 92 90 88 88 89 91 93 94 93 93 93 94 95 95 95 93 92 93 94 95 95
66 65 65 66 65 65 66 66 67 68 70 72 73 74 75 76 78 81 83 85 87 89 90 90 89 87 86 85 85 85 86 87 89 91 92 94 95 96 97 97 96 96 94 93 91 90 90 90 91 93 95 95 95 96 97 98 98 97 97 97 98 99 98
63 63 63 63 64 63 63 64 64 65 67 68 70 71 72 73 74 75 77 79 82 86 88 89 90 90 89 88 87 86 85 85 86 87 89 91 92 94 95 96 97 97 97 96 94 93 92 91 91 92 93 95 96 97 98 99 99 99 99 99 98 98 98
60 60 60 61 61 61 61 62 62 62 64 65 67 68 69 70 71 72 73 74 76 79 82 85 88 90 91 91 91 89 88 86 86 86 87 87 88 90 91 93 95 97 97 97 97 96 95 94 93 92 92 93 95 96 98 99 99 99 98 97 96 95 94
59 60 60 60 60 60 60 60 60 61 61 62 64 66 67 68 69 70 70 70 71 73 75 78 82 85 88 91 92 92 91 90 89 88 88 87 87 87 88 89 91 94 96 97 98 98 97 97 96 95 94 93 93 94 94 96 97 97 98 97 97 95 94
61 61 61 61 61 61 61 61 60 60 61 61 62 63 64 65 66 68 68 68 69 69 71 72 75 78 82 86 89 92 93 92 92 91 90 89 88 87 87 87 88 89 91 94 96 97 98 98 97 97 97 96 95 94 94 93 93 93 94 94 95 95 95
63 64 64 64 63 63 63 62 62 62 62 62 62 63 63 63 64 65 66 67 67 68 68 69 71 73 76 79 82 86 89 92 93 93 92 91 91 90 89 88 88 88 88 89 92 94 96 98 98 98 98 97 97 97 96 95 94 92 92 91 91 91 92
64 64 65 65 65 64 64 63 63 63 63 63 64 64 65 64 64 64 64 65 65 66 66 67 68 70 72 74 76 79 82 85 88 91 91 92 92 92 91 91 90 90 89 89 89 90 92 95 97 98 98 97 97 97 97 97 96 95 94 93 92 91 90
62 63 63 64 63 63 62 62 62 62 62 62 63 64 65 65 65 64 64 64 65 65 65 66 66 67 69 71 72 74 75 77 80 83 86 88 90 91 92 92 92 92 92 91 90 90 90 91 92 94 96 96 97 97 97 97 97 96 96 95 94 93 92
59 60 60 60 60 59 59 58 58 58 58 58 59 61 62 63 63 63 63 63 63 64 64 65 65 66 67 68 69 70 71 73 74 76 78 81 84 86 88 90 91 92 93 93 92 91 90 90 89 90 92 93 95 96 96 96 96 96 96 96 96 95 94
54 53 53 54 54 53 52 52 53 53 53 53 54 56 58 58 58 58 57 58 59 59 61 62 63 64 65 65 66 67 67 68 69 71 73 75 77 79 81 83 86 88 90 92 92 92 92 91 89 89 89 90 92 94 95 96 96 96 96 96 96 95 95
46 45 44 44 45 44 44 45 46 47 47 48 49 51 51 51 51 51 51 51 52 53 55 57 58 60 61 62 62 63 63 63 64 66 69 71 72 73 74 76 79 82 85 87 89 90 91 91 91 90 89 89 90 92 93 94 95 95 95 95 95 95 95
39 38 37 36 36 37 37 38 40 41 41 42 44 45 45 44 44 45 45 46 47 49 51 52 53 54 56 57 58 58 57 57 59 62 64 67 68 68 69 70 72 74 77 80 83 86 88 89 90 90 89 89 89 90 91 92 93 94 94 94 94 95 95
32 32 31 30 30 31 31 32 34 34 34 36 38 38 38 38 39 40 41 43 45 46 47 48 49 50 51 52 53 53 51 51 53 57 60 62 64 64 65 65 66 67 69 72 75 78 82 84 86 87 88 88 88 89 89 90 91 92 93 93 94 94 94
27 27 26 25 25 25 26 26 27 27 28 29 30 29 29 30 31 32 34 36 39 41 43 43 44 45 46 47 48 47 44 45 48 53 56 57 58 59 60 61 61 62 63 65 68 70 74 77 80 82 84 85 86 86 87 87 88 89 90 91 92 93 93
25 23 23 22 21 21 21 21 21 21 22 23 22 22 24 25 26 26 27 28 30 32 33 34 36 37 39 40 41 39 37 40 45 48 49 49 51 53 55 56 57 57 58 59 61 63 66 69 72 75 78 80 81 83 83 84 85 86 87 88 89 90 91
23 22 21 20 19 18 18 17 17 17 17 17 17 18 20 21 21 20 20 21 21 22 23 25 26 28 30 32 32 31 31 35 39 41 40 42 44 46 48 50 51 52 53 54 55 56 59 62 65 68 71 74 76 78 79 81 81 82 83 84 85 87 88
21 20 19 18 17 16 15 14 14 14 14 13 14 15 16 15 14 14 13 14 15 16 17 19 20 22 23 24 24 25 26 28 31 32 33 35 37 38 40 43 44 46 47 48 49 50 52 55 58 61 64 67 70 73 75 77 78 79 80 81 82 83 84
19 18 17 16 15 14 13 12 12 12 11 10 11 12 11 10 9 9 9 10 10 11 13 14 14 15 16 17 17 18 19 21 22 24 26 27 29 30 32 35 37 39 41 42 43 44 46 49 51 54 57 61 64 67 69 71 73 75 76 77 79 80 81
18 17 16 15 14 13 12 11 11 11 10 9 10 10 8 6 6 6 6 6 7 7 8 9 9 10 11 12 12 13 14 15 16 18 19 20 22 23 25 27 29 32 34 35 37 38 40 42 45 47 50 53 56 59 62 65 68 70 72 73 75 76 77
16 16 16 15 14 13 12 11 10 10 10 9 9 8 7 5 4 5 5 4 5 5 5 6 7 8 9 9 9 10 10 11 12 14 15 16 17 18 20 21 23 25 27 29 30 32 34 36 38 40 43 46 49 51 54 57 60 63 65 67 69 71 73
16 16 15 15 14 13 12 11 10 10 10 10 9 8 6 4 4 4 4 4 4 4 4 5 6 7 8 8 9 9 9 9 10 11 12 13 14 16 17 18 19 21 22 24 25 26 28 30 32 34 36 39 41 44 47 49 52 55 57 60 62 64 66
16 15 15 15 15 14 13 12 11 10 11 11 10 9 7 5 3 3 4 4 3 3 4 5 6 6 7 8 8 8 9 9 10 11 11 12 13 14 15 16 17 19 20 21 22 23 24 26 27 29 31 33 35 37 40 43 45 48 50 53 55 57 60
15 15 15 15 15 14 13 12 11 11 11 12 12 11 9 7 5 3 4 4 4 4 4 5 6 6 7 7 8 8 9 9 9 10 11 12 13 13 14 15 16 17 18 19 21 22 23 24 26 27 29 30 32 34 36 38 40 42 44 46 49 51 53
14 14 14 14 14 14 14 13 11 11 11 11 12 11 10 8 7 5 4 4 4 4 5 5 6 7 7 8 8 9 9 9 9 10 11 11 12 13 14 14 15 16 17 18 19 20 21 22 23 24 26 27 29 30 32 33 35 37 39 41 43 45 47
14 14 14 14 14 14 14 13 12 11 11 11 11 10 9 8 7 6 5 5 4 4 5 5 6 6 7 7 8 8 9 9 10 10 11 12 12 13 14 14 15 15 16 17 18 19 20 21 22 23 24 25 26 27 29 30 32 34 35 37 39 41 43
14 15 15 15 15 14 14 14 13 13 12 11 11 11 10 9 7 6 6 5 5 5 5 5 5 6 6 7 7 8 9 9 10 11 11 12 12 13 14 14 15 16 16 17 18 19 20 20 21 22 24 25 26 27 29 30 32 34 36 38 40 41 43
13 14 15 15 15 15 15 15 14 13 13 12 12 11 11 10 10 9 8 7 7 7 6 6 6 7 7 7 8 8 9 9 10 11 11 12 13 13 14 14 15 16 16 17 18 19 20 21 22 23 25 26 27 29 30 32 34 36 37 39 41 43 45
12 12 14 15 16 16 16 16 15 15 14 13 13 12 12 12 11 11 10 10 10 10 10 10 10 10 10 10 10 10 11 11 11 12 12 13 13 14 14 15 16 16 17 18 19 20 21 22 23 24 25 27 28 29 30 31 33 34 36 37 39 40 42
12 12 12 13 15 16 16 16 16 15 15 14 14 13 12 12 12 12 12 12 12 12 12 12 12 12 12 12 12 12 13 13 13 13 13 14 14 14 15 15 16 16 17 18 18 19 20 20 21 22 23 24 25 26 27 28 29 30 32 33 34 36 37
11 12 12 13 14 15 16 17 17 16 16 15 14 14 13 12 12 11 11 12 12 12 12 12 12 13 13 13 13 13 13 13 13 13 13 13 13 13 13 13 13 14 15 15 16 16 17 18 19 20 21 22 22 23 23 24 25 25 26 27 28 30 32
11 12 12 13 14 15 16 17 18 18 17 16 15 15 14 13 12 11 10 10 10 10 11 11 11 11 12 12 12 12 12 12 12 11 11 10 10 10 10 11 11 12 13 13 14 14 15 16 16 17 17 18 18 18 19 19 20 20 21 22 23 25 27
Wind_Direction
272 271 269 267 265 264 263 263 262 261 259 258 257 257 257 257 257 257 256 256 255 254 253 252 250 249 249 250 249 249 249 249 249 249 249 249 249 249 248 248 248 247 246 245 245 244 244 243 243 243 243 244 245 246 245 246 246 245 245 245 246 246 248
274 273 272 270 268 267 265 264 263 262 260 259 258 257 256 256 255 255 256 256 255 255 254 253 251 250 248 248 248 248 248 248 248 248 248 248 248 248 248 248 248 248 246 245 244 244 243 243 243 244 245 246 247 247 245 245 246 247 247 248 249 250 251
275 274 273 272 270 269 267 266 265 264 262 261 259 258 256 256 255 254 254 254 254 254 254 253 252 251 249 248 247 246 246 246 247 247 247 247 248 248 248 248 248 248 247 246 244 244 243 243 243 244 244 245 243 241 239 240 242 244 245 246 247 248 248
275 274 273 272 271 270 269 268 267 266 264 263 261 260 258 257 255 254 253 253 253 253 253 253 252 252 250 249 247 246 245 245 245 245 246 246 246 247 247 247 247 248 247 246 245 244 244 243 243 243 243 244 243 241 239 240 242 243 244 245 246 246 246
276 276 274 273 272 270 269 268 267 266 265 264 263 262 260 258 257 255 254 253 252 251 251 251 251 251 250 249 248 247 246 244 244 244 244 244 245 245 245 246 246 247 247 246 245 245 244 243 243 243 243 243 243 243 242 242 243 244 246 247 248 248 249
278 277 276 275 273 272 270 269 268 267 266 265 264 263 262 260 258 257 255 254 252 251 251 250 250 250 250 249 248 248 247 245 244 243 243 243 243 243 244 244 245 245 246 246 245 245 244 244 243 243 243 243 243 243 243 244 245 245 246 248 250 251 252
280 278 277 276 274 273 272 270 269 268 267 266 265 264 263 262 260 258 256 255 253 252 251 250 249 249 249 249 248 247 247 246 245 244 243 242 242 242 242 243 243 244 244 245 245 245 244 244 243 243 243 243 243 243 244 244 245 246 247 248 249 251 252
281 280 278 277 275 274 273 271 270 269 268 267 266 265 264 263 262 260 258 257 255 253 252 251 249 249 248 248 248 247 246 246 245 244 244 243 242 242 242 242 242 243 243 243 244 244 244 244 244 243 243 243 243 243 244 244 245 246 247 248 248 249 250
283 281 279 278 276 275 273 272 271 269 268 267 266 266 265 264 263 261 260 259 257 255 254 252 250 249 248 248 248 247 246 246 245 245 244 244 243 243 242 242 242 242 242 243 243 243 243 243 243 243 243 243 244 244 244 245 245 246 247 247 248 248 249
283 282 280 278 277 275 274 273 271 270 269 267 266 265 265 264 263 262 261 260 259 257 256 254 252 251 249 248 248 247 247 246 245 245 245 244 244 243 243 243 242 242 242 242 242 242 242 242 243 243 243 243 244 244 244 245 245 246 246 247 247 248 248
283 282 280 279 277 276 274 273 272 270 269 268 267 266 264 263 263 262 262 261 260 259 257 256 255 253 251 250 249 248 247 246 246 245 245 245 244 244 243 243 243 243 242 242 242 242 242 242 242 242 242 243 243 244 244 245 245 246 246 247 247 247 248
284 282 281 279 277 276 274 273 271 270 269 268 267 266 265 264 262 262 262 261 261 260 259 257 256 255 253 252 250 249 248 247 247 246 246 245 245 245 244 244 243 243 243 242 242 242 242 242 242 242 242 243 243 244 244 245 245 246 246 247 247 248 248
285 283 281 279 278 276 274 273 271 270 269 268 267 267 266 264 263 262 262 261 261 261 260 259 258 256 255 254 253 252 250 249 248 247 246 246 245 245 244 244 244 243 243 243 243 242 242 242 242 242 243 243 243 243 244 244 245 245 246 247 247 248 248
287 284 282 280 278 276 275 273 272 271 269 268 267 266 265 265 264 263 263 262 262 261 261 260 259 258 257 255 254 253 252 251 250 249 248 247 246 245 244 243 243 243 243 243 243 243 243 243 243 242 243 243 243 243 244 244 244 245 245 246 247 247 248
290 286 284 281 278 276 275 273 272 271 270 269 268 267 266 265 265 264 264 263 262 261 260 259 259 259 258 256 255 253 253 252 252 251 250 248 247 246 245 244 243 243 242 242 243 243 243 243 243 243 242 242 242 243 243 243 244 244 245 245 246 247 247
294 291 287 284 280 278 276 274 273 272 271 271 270 269 268 268 267 266 265 263 262 260 259 258 258 258 257 257 255 254 253 252 252 251 250 249 248 247 246 245 244 243 243 242 242 242 242 242 242 242 242 242 242 242 243 243 243 244 244 245 246 246 247
300 296 292 288 284 281 278 276 275 275 275 274 273 272 271 271 269 267 265 262 260 259 258 257 257 256 256 256 256 254 253 252 251 250 249 248 248 246 246 245 244 244 243 242 242 241 241 241 241 241 241 241 242 242 242 243 243 244 244 245 245 246 246
306 301 297 293 289 285 282 280 279 279 278 277 275 275 274 273 270 267 264 262 260 258 257 257 256 256 256 256 256 255 253 252 251 249 248 247 246 246 246 245 245 244 244 243 242 242 241 241 240 240 241 241 242 242 242 243 243 243 244 245 245 246 246
312 308 304 300 296 292 289 287 286 284 282 279 279 278 275 272 268 265 263 261 259 258 257 256 256 256 256 256 256 255 253 251 250 248 247 246 246 246 246 245 245 244 244 244 243 243 242 241 241 240 241 241 242 243 243 243 243 243 244 245 245 246 246
317 314 311 308 305 301 298 296 293 290 285 282 281 278 273 269 267 265 263 262 261 260 259 258 257 256 256 256 255 253 251 249 248 247 247 247 246 246 245 245 245 245 244 244 244 243 243 242 242 241 241 241 242 243 244 244 244 244 245 245 246 246 247
323 320 317 315 313 311 309 305 300 294 290 287 284 279 274 272 272 271 270 268 266 263 261 259 257 255 255 255 254 251 247 247 249 248 247 247 247 246 245 245 245 245 245 245 245 245 244 243 243 242 241 241 242 242 243 244 245 246 246 246 246 247 247
329 327 325 324 322 321 319 315 308 303 300 297 291 284 283 284 284 282 278 272 266 261 258 255 254 254 254 253 252 249 244 244 248 249 247 245 245 246 246 246 246 246 246 246 246 245 245 244 243 243 242 242 242 242 243 244 245 246 247 247 248 248 248
336 335 334 334 333 333 332 327 322 319 317 311 303 300 304 305 298 289 279 271 264 258 255 253 252 251 251 249 246 244 242 241 242 245 245 243 242 243 244 245 245 245 245 246 246 245 245 245 244 244 243 243 243 243 243 244 245 246 247 248 248 249 249
340 339 340 341 341 342 342 339 333 330 328 322 317 321 329 325 305 293 285 279 272 262 256 253 251 248 247 245 241 238 236 234 234 237 239 240 239 239 240 241 243 243 243 243 244 244 244 244 244 244 244 244 244 244 244 245 246 246 247 248 249 249 250
347 348 349 351 353 353 353 350 343 338 337 335 333 338 347 344 323 310 301 289 281 270 258 254 251 248 246 246 244 239 234 231 230 231 232 234 235 235 235 236 238 240 241 241 242 242 242 242 243 243 244 244 245 245 245 245 246 247 248 249 250 250 251
358 360 1 3 5 4 3 0 353 345 343 344 347 352 357 355 339 324 314 302 288 277 267 259 254 250 249 247 246 243 238 234 232 231 231 232 233 234 234 234 235 237 239 240 241 241 241 241 242 242 243 244 244 245 245 246 246 247 248 249 250 251 252
7 9 10 11 11 12 11 8 2 354 348 349 354 360 3 1 346 320 313 310 301 285 268 259 255 253 248 245 244 242 240 237 234 233 234 235 235 235 235 236 236 238 239 240 241 241 242 242 242 243 243 243 244 244 245 245 246 247 248 249 249 250 251
11 12 12 13 13 13 14 12 7 358 350 350 353 356 358 359 355 334 313 305 299 287 269 254 250 247 243 241 240 238 238 236 234 232 233 234 235 235 235 236 237 238 239 240 241 241 242 242 243 243 243 244 245 245 246 246 247 247 248 249 249 250 251
4 4 3 4 4 5 7 9 7 0 354 352 352 353 353 351 347 340 324 308 295 283 268 255 248 243 239 238 236 234 234 235 235 235 234 234 235 236 237 237 238 239 240 242 243 244 245 245 246 246 247 247 248 248 249 249 250 250 251 251 252 252 252
355 355 354 354 354 354 353 355 356 354 351 349 347 347 347 345 341 337 327 315 303 288 273 261 253 247 243 240 237 234 235 236 238 239 240 241 241 242 242 242 242 242 243 244 246 247 248 249 250 251 251 251 252 252 253 253 254 255 255 255 256 256 257
351 351 351 351 351 350 348 346 346 346 343 338 334 332 330 329 328 324 316 309 302 292 280 268 259 253 248 244 241 238 236 236 236 237 238 239 240 241 242 242 242 243 243 244 245 247 248 249 251 252 253 254 254 255 256 257 257 258 259 260 260 260 261
350 350 351 351 350 350 349 346 345 345 342 335 329 324 318 314 309 304 297 292 286 280 274 267 260 255 250 247 244 241 239 239 239 238 238 238 239 240 241 242 243 244 246 248 249 250 252 253 254 255 256 257 259 259 260 261 261 262 263 263 264 264 264
348 351 352 351 350 350 350 349 347 345 343 339 333 327 319 311 304 298 291 284 278 273 268 263 259 257 255 253 251 249 248 247 247 246 246 245 246 246 247 248 249 250 251 252 254 255 256 258 259 260 261 262 263 264 265 266 266 267 267 268 269 269 269
341 348 351 353 352 352 351 350 349 346 344 341 337 332 325 317 308 300 292 285 278 273 268 264 261 258 257 255 254 253 251 250 249 249 248 247 248 249 250 251 253 254 256 258 260 261 263 264 265 267 267 268 269 269 270 270 271 272 273 273 274 274 274
330 338 345 349 352 352 353 353 352 349 347 345 341 338 333 326 317 306 296 287 280 273 269 265 261 257 255 253 252 251 249 248 246 246 246 246 247 248 251 254 257 259 261 263 264 266 267 268 269 270 271 272 273 274 275 276 277 278 279 280 280 280 280
315 323 332 339 345 349 351 352 352 351 350 348 345 343 340 336 329 320 308 296 285 276 270 264 260 256 251 248 247 245 243 242 241 241 241 243 244 247 250 252 255 258 260 262 264 266 268 269 271 273 274 276 277 279 280 281 282 282 282 282 283 283 284